This demonstration page uses our WeatherBlox Daily Observations layout. Learn more.

38.88101, -77.10428

Hourly Observations for October 11, 2017

Temp ( °F °C ) Dew Point ( °F °C ) Humidity (%) Winds ( mph kmh ) Pressure ( in mb ) Visibility ( mi km ) Precip ( " mm )
12:52 am 00:52 Mostly Cloudy 75 23.9 71 21.7 88 88 NE 7 11 30.06 1018 10 16.0934 0 0
1:10 am 01:10 Cloudy 75 23.9 72 22.2 90 90 E 5 7 30.06 1018 10 16.0934 0 0
1:41 am 01:41 Cloudy 75 23.9 73 22.8 94 94 ENE 6 9 30.06 1018 10 16.0934 0 0
1:52 am 01:52 Cloudy 75 23.9 73 22.8 94 94 ENE 7 11 30.06 1018 10 16.0934 0 0
2:52 am 02:52 Cloudy with Mist and Fog 74 23.3 73 22.8 97 97 NE 8 13 30.05 1018 6 9.65604 0 0
3:19 am 03:19 Cloudy with Nearby Thunderstorms 75 23.9 73 22.8 94 94 ENE 9 15 30.03 1017 9 14.48406 0 0
3:38 am 03:38 Mostly Cloudy with Thunderstorms 74 23.3 73 22.8 97 97 E 6 9 30.03 1017 9 14.48406 0 0
3:52 am 03:52 Cloudy with Thunderstorms 74 23.3 73 22.8 97 97 E 5 7 30.03 1017 9 14.48406 0 0
4:02 am 04:02 Cloudy 74 23.3 73 22.8 97 97 NE 3 6 30.03 1017 8 12.87472 0 0
4:50 am 04:50 Cloudy 73 23 72 22 94 94 NE 7 11 30.03 1017 10 16.0934 0 0
4:52 am 04:52 Cloudy 74 23.3 72 22.2 94 94 NE 7 11 30.03 1017 10 16.0934 0 0
5:52 am 05:52 Cloudy 74 23.3 71 21.7 91 91 NE 8 13 30.04 1017 10 16.0934 0 0
6:34 am 06:34 Cloudy 73 22.8 71 21.7 94 94 ENE 5 7 30.06 1018 10 16.0934 0 0
6:52 am 06:52 Cloudy 74 23.3 70 21.1 88 88 E 6 9 30.06 1018 10 16.0934 0 0
7:52 am 07:52 Cloudy 73 22.8 71 21.7 94 94 ENE 6 9 30.06 1018 10 16.0934 0 0
8:25 am 08:25 Cloudy 73 22.8 71 21.7 94 94 ENE 7 11 30.06 1018 10 16.0934 0 0
8:52 am 08:52 Cloudy 74 23.3 71 21.7 91 91 ENE 10 17 30.06 1018 10 16.0934 0 0
9:24 am 09:24 Cloudy 75 23.9 71 21.7 88 88 E 13 20 30.06 1018 10 16.0934 0 0
9:52 am 09:52 Cloudy with Light Rain 74 23.3 71 21.7 91 91 E 7 11 30.07 1018 10 16.0934 0 0.0254
10:37 am 10:37 Cloudy 74 23.3 71 21.7 91 91 SE 8 13 30.06 1018 10 16.0934 0 0.0254
10:52 am 10:52 Cloudy 74 23.3 70 21.1 88 88 SE 12 19 30.06 1018 10 16.0934 0 0.0254
11:37 am 11:37 Cloudy 74 23.3 70 21.1 88 88 ESE 10 17 30.06 1018 10 16.0934 0 0
11:52 am 11:52 Cloudy 75 23.9 70 21.1 84 84 ESE 8 13 30.05 1018 10 16.0934 0 0
12:52 pm 12:52 Cloudy 74 23.3 70 21.1 88 88 SSE 10 17 30.04 1017 10 16.0934 0 0
1:52 pm 13:52 Cloudy 75 23.9 70 21.1 84 84 SE 8 13 30.02 1017 10 16.0934 0 0
2:52 pm 14:52 Cloudy with Light Rain 75 23.9 70 21.1 84 84 SE 13 20 30.01 1016 9 14.48406 0 0.0254
3:52 pm 15:52 Cloudy 74 23.3 70 21.1 88 88 ESE 12 19 30 1016 10 16.0934 0 0.0254
4:48 pm 16:48 Cloudy with Light Rain 73 23 70 21 89 89 SE 10 17 30 1016 4 6.43736 0 0.0254
4:52 pm 16:52 Cloudy with Light Rain 73 22.8 71 21.7 94 94 ESE 8 13 30 1016 4 6.43736 0 0.0254
5:20 pm 17:20 Cloudy with Light Rain 72 22.2 71 21.7 97 97 E 5 7 30 1016 4 6.43736 0 0.0254
5:40 pm 17:40 Cloudy with Light Rain 72 22.2 71 21.7 97 97 E 9 15 30 1016 2.5 4.02335 0 0.0254
5:52 pm 17:52 Cloudy with Light Drizzle 72 22.2 71 21.7 97 97 ESE 7 11 30.01 1016 2.5 4.02335 0 0.0254
6:26 pm 18:26 Cloudy with Mist and Fog 72 22.2 71 21.7 97 97 E 9 15 30.03 1017 3 4.82802 0 0.0254
6:33 pm 18:33 Cloudy with Mist and Fog 71 21.7 70 21.1 96 96 ENE 8 13 30.03 1017 3 4.82802 0 0.0254
6:52 pm 18:52 Cloudy with Light Rain 71 21.7 70 21.1 96 96 E 8 13 30.03 1017 3 4.82802 0 0.0254
7:00 pm 19:00 Cloudy with Light Rain 71 21.7 70 21.1 96 96 E 7 11 30.03 1017 2.5 4.02335 0.01 0.254
7:15 pm 19:15 Cloudy with Light Rain 70 21.1 70 21.1 100 100 E 9 15 30.03 1017 3 4.82802 0.01 0.254
7:52 pm 19:52 Cloudy 70 21.1 70 21.1 100 100 ENE 7 11 30.04 1017 8 12.87472 0.01 0.254
8:52 pm 20:52 Cloudy 70 21.1 69 20.6 97 97 E 7 11 30.03 1017 8 12.87472 0 0
9:52 pm 21:52 Cloudy 69 20.6 68 20 96 96 E 6 9 30.05 1018 10 16.0934 0 0
10:24 pm 22:24 Cloudy with Light Rain 69 20.6 68 20 96 96 ENE 12 19 30.06 1018 2 3.21868 0.01 0.254
10:31 pm 22:31 Cloudy with Light Rain 68 20 67 19.4 96 96 ENE 13 20 30.06 1018 2 3.21868 0.01 0.254
10:43 pm 22:43 Cloudy with Mist and Fog 68 20 67 19.4 96 96 ENE 9 15 30.06 1018 4 6.43736 0.01 0.254
10:52 pm 22:52 Cloudy with Light Drizzle 67 19.4 67 19.4 100 100 E 10 17 30.04 1017 5 8.0467 0.01 0.254
11:24 pm 23:24 Cloudy 67 19.4 66 18.9 97 97 E 8 13 30.03 1017 10 16.0934 0 0.0254
11:52 pm 23:52 Cloudy 67 19.4 66 18.9 97 97 E 7 11 30.03 1017 10 16.0934 0 0.0254

Powered by AerisWeather